FW7071 Weather Reports


time (UTC)temp
C
wind
direction
speed
KPH
gust
KPH
rain 1hr
cm
rain 24hr
cm
rain mn
cm
humidity
%
barometer
mb
20260504151010 18 217 4.8 12.9 0.00 0.00 0.00 44 1014.9
20260504150507 18 304 9.7 11.3 0.00 0.00 0.00 43 1014.8
20260504140927 16 229 4.8 8.0 0.00 0.00 0.00 54 1015.0
20260504140424 16 230 6.4 9.7 0.00 0.00 0.00 54 1015.1
20260504130349 15 208 3.2 4.8 0.00 0.00 0.00 64 1015.6
20260504120312 11 196 4.8 4.8 0.00 0.00 0.00 65 1015.8
20260504110236 8 234 3.2 9.7 0.00 0.00 0.00 64 1015.8
20260504100159 7 103 0.0 3.2 0.00 0.00 0.00 67 1015.6
20260504090122 4 0 0.0 0.0 0.00 0.00 0.00 80 1015.7
20260504081552 5 44 0.0 0.0 0.00 0.00 0.00 78 1016.0
20260504081048 5 33 0.0 0.0 0.00 0.00 0.00 77 1015.8
20260504080545 5 47 0.0 0.0 0.00 0.00 0.00 74 1015.9
20260504050358 10 291 1.6 1.6 0.00 0.00 0.00 55 1015.8
20260504045855 10 245 1.6 3.2 0.00 0.00 0.00 56 1015.7
20260504045350 10 279 1.6 1.6 0.00 0.00 0.00 55 1015.8
20260504044847 10 235 3.2 4.8 0.00 0.00 0.00 55 1015.7
20260504044344 10 239 1.6 3.2 0.00 0.00 0.00 55 1015.6
20260504043842 10 233 1.6 1.6 0.00 0.00 0.00 55 1015.7
20260504043338 10 299 3.2 4.8 0.00 0.00 0.00 56 1015.7
20260504042836 10 241 6.4 9.7 0.00 0.00 0.00 55 1015.7
20260504042332 10 271 4.8 4.8 0.00 0.00 0.00 56 1015.5
20260504041828 10 220 4.8 4.8 0.00 0.00 0.00 55 1015.4
20260504041324 10 228 4.8 4.8 0.00 0.00 0.00 55 1015.5
20260504040821 10 240 3.2 4.8 0.00 0.00 0.00 55 1015.4
20260504040319 10 205 4.8 4.8 0.00 0.00 0.00 55 1015.3
20260504035814 10 236 1.6 3.2 0.00 0.00 0.00 55 1015.5
20260504035312 10 239 4.8 4.8 0.00 0.00 0.00 55 1015.3
20260504034809 10 230 4.8 4.8 0.00 0.00 0.00 55 1015.0
20260504034307 10 234 3.2 3.2 0.00 0.00 0.00 55 1015.1
20260504033803 10 238 3.2 3.2 0.00 0.00 0.00 55 1015.2
20260504033301 10 240 4.8 8.0 0.00 0.00 0.00 55 1015.4
20260504032758 10 218 3.2 3.2 0.00 0.00 0.00 55 1015.1
20260504032255 10 224 3.2 3.2 0.00 0.00 0.00 54 1015.3
20260504031751 10 225 3.2 3.2 0.00 0.00 0.00 53 1015.2
20260504031249 10 261 1.6 3.2 0.00 0.00 0.00 54 1014.9
20260504030744 11 240 6.4 8.0 0.00 0.00 0.00 53 1015.1
20260504030242 11 235 3.2 3.2 0.00 0.00 0.00 53 1015.0
20260504025738 11 243 4.8 8.0 0.00 0.00 0.00 52 1015.0
20260504025235 11 189 1.6 4.8 0.00 0.00 0.00 52 1014.8
20260504024732 11 217 0.0 1.6 0.00 0.00 0.00 52 1015.0
20260504024229 11 206 4.8 4.8 0.00 0.00 0.00 52 1015.0
20260504023726 10 222 4.8 4.8 0.00 0.00 0.00 53 1015.0
20260504023222 11 242 1.6 1.6 0.00 0.00 0.00 53 1015.2
20260504022718 11 248 4.8 8.0 0.00 0.00 0.00 52 1015.1
20260504022214 11 247 3.2 3.2 0.00 0.00 0.00 52 1015.2
20260504021712 11 269 4.8 8.0 0.00 0.00 0.00 52 1015.1
20260504021209 11 281 4.8 4.8 0.00 0.00 0.00 52 1015.0
20260504020706 11 209 1.6 3.2 0.00 0.00 0.00 52 1015.1
20260504020201 11 213 0.0 1.6 0.00 0.00 0.00 52 1015.1
20260504015658 11 249 0.0 1.6 0.00 0.00 0.00 50 1015.1
20260504015154 11 232 3.2 4.8 0.00 0.00 0.00 49 1014.9
20260504014650 12 207 3.2 4.8 0.00 0.00 0.00 48 1014.9
20260504014148 12 220 4.8 4.8 0.00 0.00 0.00 47 1015.0
20260504013645 12 216 3.2 3.2 0.00 0.00 0.00 48 1015.1
20260504013142 12 223 8.0 9.7 0.00 0.00 0.00 47 1015.0
20260504012639 12 224 4.8 4.8 0.00 0.00 0.00 48 1015.0
20260504012137 12 235 4.8 8.0 0.00 0.00 0.00 48 1014.8
20260504011633 12 233 4.8 8.0 0.00 0.00 0.00 47 1014.8
20260504011130 12 205 3.2 3.2 0.00 0.00 0.00 48 1014.6
20260504010625 12 228 1.6 3.2 0.00 0.00 0.00 48 1014.8
20260504010116 12 259 3.2 4.8 0.00 0.00 0.00 48 1014.6
20260504005613 12 214 4.8 4.8 0.00 0.00 0.00 48 1014.8
20260504005110 12 239 4.8 8.0 0.00 0.00 0.00 48 1014.6
20260504004608 12 237 1.6 1.6 0.00 0.00 0.00 48 1014.8
20260504004105 12 216 3.2 3.2 0.00 0.00 0.00 48 1014.3
20260504003601 12 268 1.6 3.2 0.00 0.00 0.00 47 1014.4
20260504003058 12 218 3.2 3.2 0.00 0.00 0.00 46 1014.4
20260504002555 13 257 3.2 4.8 0.00 0.00 0.00 45 1014.2
20260504002053 13 257 1.6 1.6 0.00 0.00 0.00 45 1014.1
20260504001550 13 231 1.6 3.2 0.00 0.00 0.00 45 1014.2
20260504001046 13 244 4.8 4.8 0.00 0.00 0.00 44 1013.9
20260504000543 13 214 3.2 4.8 0.00 0.00 0.00 44 1014.1
20260504000040 13 244 3.2 3.2 0.00 0.00 0.00 43 1013.7
20260503235539 13 276 3.2 4.8 0.00 0.00 0.00 43 1013.9
20260503235035 13 253 6.4 8.0 0.00 0.00 0.00 42 1014.1
20260503234533 14 243 6.4 8.0 0.00 0.00 0.00 42 1013.8
20260503234031 14 242 4.8 4.8 0.00 0.00 0.00 42 1013.8
20260503233527 14 290 4.8 4.8 0.00 0.00 0.00 42 1013.7
20260503233023 14 317 8.0 11.3 0.00 0.00 0.00 41 1013.8
20260503232520 15 289 4.8 4.8 0.00 0.00 0.00 40 1013.8
20260503232018 15 271 6.4 8.0 0.00 0.00 0.00 40 1013.7
20260503231516 15 257 6.4 9.7 0.00 0.00 0.00 39 1013.9
20260503231012 15 283 9.7 11.3 0.00 0.00 0.00 39 1013.6
20260503230508 15 325 11.3 12.9 0.00 0.00 0.00 39 1013.6
20260503230006 15 261 4.8 8.0 0.00 0.00 0.00 39 1013.7
20260503225503 15 253 8.0 12.9 0.00 0.00 0.00 39 1013.6
20260503224952 15 312 12.9 20.9 0.00 0.00 0.00 38 1013.5
20260503224449 15 265 8.0 9.7 0.00 0.00 0.00 38 1013.5
20260503223947 15 248 6.4 8.0 0.00 0.00 0.00 39 1013.6
20260503223445 15 294 3.2 4.8 0.00 0.00 0.00 40 1013.6
20260503222940 15 252 8.0 9.7 0.00 0.00 0.00 39 1013.7
20260503222439 15 297 4.8 4.8 0.00 0.00 0.00 39 1013.5
20260503221937 15 282 11.3 12.9 0.00 0.00 0.00 38 1013.7
20260503221435 15 237 6.4 8.0 0.00 0.00 0.00 39 1013.5
20260503220931 15 235 8.0 11.3 0.00 0.00 0.00 37 1013.7
20260503220427 15 303 8.0 9.7 0.00 0.00 0.00 38 1013.6
20260503215925 15 223 11.3 14.5 0.00 0.00 0.00 37 1013.5
20260503215422 15 302 6.4 8.0 0.00 0.00 0.00 36 1013.7
20260503214919 15 313 11.3 16.1 0.00 0.00 0.00 37 1013.6
20260503214417 15 264 8.0 11.3 0.00 0.00 0.00 37 1013.5
20260503213914 16 322 16.1 20.9 0.00 0.00 0.00 35 1013.4
20260503213412 16 275 17.7 22.5 0.00 0.00 0.00 36 1013.4
20260503212908 16 197 6.4 11.3 0.00 0.00 0.00 35 1013.4
20260503212406 15 239 12.9 14.5 0.00 0.00 0.00 36 1013.6
20260503211903 16 299 14.5 20.9 0.00 0.00 0.00 36 1013.5
20260503211359 16 250 6.4 11.3 0.00 0.00 0.00 36 1013.5
20260503210855 16 300 9.7 14.5 0.00 0.00 0.00 35 1013.4
20260503210352 16 290 12.9 16.1 0.00 0.00 0.00 36 1013.5
20260503205847 16 265 6.4 9.7 0.00 0.00 0.00 36 1013.5
20260503205344 16 245 4.8 8.0 0.00 0.00 0.00 36 1013.4
20260503204841 15 247 14.5 17.7 0.00 0.00 0.00 36 1013.7
20260503204338 15 219 12.9 16.1 0.00 0.00 0.00 36 1013.5
20260503203835 15 248 9.7 14.5 0.00 0.00 0.00 36 1013.5
20260503203333 16 251 12.9 17.7 0.00 0.00 0.00 35 1013.5
20260503202829 15 161 3.2 4.8 0.00 0.00 0.00 36 1013.5
20260503202328 15 336 8.0 9.7 0.00 0.00 0.00 38 1013.7
20260503201826 15 301 8.0 9.7 0.00 0.00 0.00 39 1013.6
20260503201322 15 271 14.5 17.7 0.00 0.00 0.00 37 1013.6
20260503200820 15 238 12.9 17.7 0.00 0.00 0.00 37 1013.8
20260503200316 15 255 11.3 14.5 0.00 0.00 0.00 37 1013.7
20260503195813 15 263 11.3 16.1 0.00 0.00 0.00 39 1013.9
20260503195309 15 314 9.7 16.1 0.00 0.00 0.00 38 1013.8
20260503194806 15 298 8.0 9.7 0.00 0.00 0.00 39 1014.1
20260503194302 14 257 19.3 27.4 0.00 0.00 0.00 38 1014.2
20260503193759 14 327 11.3 14.5 0.00 0.00 0.00 38 1014.2
20260503193255 14 317 16.1 20.9 0.00 0.00 0.00 38 1014.1
20260503192750 14 298 14.5 22.5 0.00 0.00 0.00 39 1014.4
20260503192245 14 258 4.8 9.7 0.00 0.00 0.00 43 1014.3
20260503191742 13 307 20.9 25.7 0.00 0.00 0.00 39 1014.2
20260503191239 15 269 6.4 9.7 0.00 0.00 0.00 39 1014.3
20260503190731 14 274 8.0 11.3 0.00 0.00 0.00 40 1014.4
20260503190228 13 294 11.3 12.9 0.00 0.00 0.00 40 1014.4
20260503185725 13 236 6.4 9.7 0.00 0.00 0.00 41 1014.4
20260503185220 14 226 17.7 24.1 0.00 0.00 0.00 40 1014.4
20260503184715 13 308 8.0 14.5 0.00 0.00 0.00 42 1014.4
20260503184212 13 274 19.3 29.0 0.00 0.00 0.00 40 1014.5
20260503183708 13 290 9.7 11.3 0.00 0.00 0.00 41 1014.6
20260503183206 13 271 4.8 8.0 0.00 0.00 0.00 40 1014.6
20260503182704 13 273 8.0 12.9 0.00 0.00 0.00 40 1014.8
20260503182202 13 230 11.3 24.1 0.00 0.00 0.00 40 1014.8
20260503181658 13 231 11.3 12.9 0.00 0.00 0.00 41 1015.0
20260503181155 13 0 6.4 11.3 0.00 0.00 0.00 41 1014.8
20260503180652 13 276 8.0 16.1 0.00 0.00 0.00 42 1014.7
20260503180150 13 292 14.5 24.1 0.00 0.00 0.00 42 1014.9
20260503175647 13 23 19.3 27.4 0.00 0.00 0.00 41 1014.8
20260503175144 13 246 6.4 8.0 0.00 0.00 0.00 45 1014.9
20260503174640 12 256 9.7 12.9 0.00 0.00 0.00 43 1014.8
20260503174138 12 264 8.0 14.5 0.00 0.00 0.00 43 1014.8
20260503173632 12 304 12.9 16.1 0.00 0.00 0.00 40 1015.1
20260503173129 12 266 12.9 17.7 0.00 0.00 0.00 42 1015.0
20260503172620 13 234 12.9 22.5 0.00 0.00 0.00 41 1014.9
20260503172118 12 225 6.4 9.7 0.00 0.00 0.00 44 1014.9
20260503171614 12 319 14.5 16.1 0.00 0.00 0.00 40 1015.1
20260503171112 12 294 8.0 11.3 0.00 0.00 0.00 41 1015.1
20260503170608 12 287 11.3 14.5 0.00 0.00 0.00 42 1015.1
20260503170105 12 275 12.9 17.7 0.00 0.00 0.00 42 1015.3